P/2005 E1 (Tubbiolo)

Epoch 2005 Mar. 11.0 TT = JDT 2453440.5  

T 2005 Mar. 16.69274 TT                                 Nakano

q   4.4460500            (2000.0)            P               Q

n   0.05080650     Peri.  170.60391     -0.99616825     -0.08718394

a   7.2197674      Node     4.41212     +0.07326828     -0.87509747

e   0.3841838      Incl.    5.15553     +0.04775550     -0.47602875

P  19.40 (+/- 0.56 day)

From 60 observations 2005 Mar. 3-May 9, mean residual 0".77.

Residuals in seconds of arc 

2005/                     050314 372  1.0-  0.3+    050402 A13  0.2+  0.5+  

050303 691  0.0   0.5-    050314 372  1.4-  0.5-    050402 A13  0.4+  0.5-  

050303 691  0.0   1.0-    050318 372  0.6-  1.6+    050402 A13  0.6+  0.0   

050303 691  0.5+  0.4-    050318 213  0.7-  1.6+    050402 215  0.2-  0.3-  

050304 H36  0.7-  0.7-    050318 213  0.8-  1.6+    050404 G96  1.6-  0.5+  

050304 H36  1.4-  0.8+    050318 213  0.8-  1.4+    050404 G96  0.3-  0.2-  

050304 F65  0.1+  0.9-    050318 213  0.7-  1.2+    050404 G96  0.2+  0.5-  

050304 F65  0.5+  1.0-    050318 J76  0.8+  0.0     050404 G96  0.1-  0.3+  

050304 F65  0.5+  1.0-    050318 J76  0.5+  0.7+    050404 D74  0.3+  0.5-  

050304 F65  0.2+  0.6-    050318 J76  0.9+  1.0+    050404 D74  0.1+  0.3-  

050304 691  0.5+  0.5-    050331 360  0.5+  0.2-    050404 D74  0.8+  0.0   

050304 691  0.1+  0.4-    050331 360  0.8+  0.4-    050404 D74  0.5+  0.1-  

050304 691  1.2+  0.7-    050331 360  0.6+  0.4-    050405 372  0.3+  0.1+  

050304 246  0.1-  0.3+    050401 A13  0.5+  0.5-    050427 213  1.4-  0.2-  

050304 246 (2.2-  0.3+)   050401 213  0.1+  0.9+    050427 213  1.1-  0.1-  

050304 246  0.4-  0.2-    050401 213  0.5+  1.2+    050427 213  0.7-  0.0   

050307 850  0.1+  1.7-    050401 A13  0.0   0.4-    050509 673  0.4+  0.4-  

050307 850  1.6+  1.9-    050401 213  0.4+  1.2+    050509 673  0.2+  0.4-  

050309 213  1.0-  1.3+    050401 A13  0.3+  0.3-    050509 673  0.1+  0.5-  

050309 213  1.2-  1.6+    050401 A13  0.1+  0.4-    050509 673  0.1-  0.5-  

050313 372  0.6-  1.4+    050402 A13  1.7+  0.7-                            



NAKANO

         **** Don't distribute anyone except personal use only ****

                (C) Copyright 2005 OAA/ComputingSection

write mail from CFAD0::NAKANO on 2005-11-03 23:39:18(JST).

 



    P/2005 E1 (Tubbiolo)                                                  

T 2005 Mar. 14.42972 TT                                 Nakano

q   4.4444924            (2000.0)            P               Q

n   0.05075964     Peri.  170.31670     -0.99573034     -0.09205018

a   7.2242098      Node     4.41938     +0.07754439     -0.87476600

e   0.3847781      Incl.    5.15115     +0.05007961     -0.47572178

P  19.42 (+/- 0.55 day)

From 60 observations 2005 Mar. 3-May 9.



NAKANO

         **** Don't distribute anyone except personal use only ****

                (C) Copyright 2005 OAA/ComputingSection

write mail from CFAD0::NAKANO on 2005-06-05 05:59:11(JST).

 





    P/2005 E1 (Tubbiolo)                                                  

T 2005 Mar. 10.34857 TT                                 Nakano

q   4.4296719            (2000.0)            P               Q

n   0.05046637     Peri.  169.73873     -0.99487272     -0.10089450

a   7.2521704      Node     4.48821     +0.08532939     -0.87438965

e   0.3891936      Incl.    5.10991     +0.05428787     -0.47461884

P  19.53 (+/-10.81 day)

From 39 observations 2005 Mar. 3-Apr. 1.



NAKANO

         **** Don't distribute anyone except personal use only ****

                (C) Copyright 2005 OAA/ComputingSection

write mail from CFAD0::NAKANO on 2005-04-06 02:03:09(JST).





◎P/2005 E1の軌道と予報位置です



  その後の追跡観測が報告されています.久万の中村彰正氏の3月31日の観測

では,彗星のCCD全光度は,19.6等でした.



    P/2005 E1 (Tubbiolo)                                                  

T 2005 Mar. 10.34857 TT                                 Nakano

q   4.4296719            (2000.0)            P               Q

n   0.05046637     Peri.  169.73873     -0.99487272     -0.10089450

a   7.2521704      Node     4.48821     +0.08532939     -0.87438965

e   0.3891936      Incl.    5.10991     +0.05428787     -0.47461884

P  19.53 (+/-10.81 day)

From 39 observations 2005 Mar. 3-Apr. 1.

 

Date/        TT  R.A.(2000) Decl.     Delta   r     Daily motion  Mag.  Moon Age

              h    h  m       。  ,                      ,  / PA 。  m1      。

2005 Apr.  1 12  11 34.92  +03 38.2   3.474  4.431     6.7 / 286  19.2  102  .56

           2 12  11 34.49  +03 40.0   3.479  4.431     6.6 / 285  19.2  116  .45

           3 12  11 34.06  +03 41.7   3.484  4.431     6.5 / 285  19.2  130  .33

           4 12  11 33.65  +03 43.4   3.490  4.432     6.4 / 285  19.2  145  .23

           5 12  11 33.23  +03 45.1   3.495  4.432     6.2 / 285  19.2  159  .14

           6 12  11 32.83  +03 46.7   3.501  4.432     6.1 / 285  19.2  173  .07

           7 12  11 32.44  +03 48.2   3.508  4.432     5.9 / 284  19.2  172  .02

           8 12  11 32.05  +03 49.7   3.514  4.432     5.8 / 284  19.2  158  .00

           9 12  11 31.68  +03 51.1   3.521  4.432     5.6 / 284  19.2  144  .00

          10 12  11 31.31  +03 52.5   3.528  4.433     5.5 / 284  19.2  131  .03

          11 12  11 30.96  +03 53.7   3.535  4.433     5.3 / 283  19.2  118  .08

          12 12  11 30.61  +03 55.0   3.543  4.433     5.2 / 283  19.2  105  .14

          13 12  11 30.27  +03 56.1   3.550  4.433     5.0 / 283  19.2   92  .22

          14 12  11 29.95  +03 57.2   3.558  4.433     4.8 / 282  19.2   80  .30

          15 12  11 29.63  +03 58.3   3.567  4.433     4.6 / 282  19.2   68  .40

          16 12  11 29.33  +03 59.2   3.575  4.434     4.5 / 281  19.2   56  .49

          17 12  11 29.04  +04 00.1   3.584  4.434     4.3 / 281  19.2   44  .58

          18 12  11 28.76  +04 00.9   3.593  4.434     4.1 / 280  19.2   32  .68

          19 12  11 28.49  +04 01.7   3.602  4.434     3.9 / 280  19.3   20  .76

          20 12  11 28.23  +04 02.3   3.611  4.435     3.7 / 279  19.3    8  .84

          21 12  11 27.99  +04 02.9   3.621  4.435     3.5 / 278  19.3    5  .91

          22 12  11 27.75  +04 03.5   3.631  4.435     3.3 / 278  19.3   18  .96

          23 12  11 27.53  +04 03.9   3.641  4.435     3.1 / 277  19.3   31  .99

          24 12  11 27.32  +04 04.3   3.651  4.436     2.9 / 276  19.3   44 1.00

          25 12  11 27.13  +04 04.5   3.662  4.436     2.7 / 274  19.3   58  .99

          26 12  11 26.95  +04 04.8   3.672  4.436     2.6 / 273  19.3   72  .95

          27 12  11 26.78  +04 04.9   3.683  4.436     2.4 / 271  19.3   86  .88

          28 12  11 26.62  +04 05.0   3.694  4.437     2.2 / 269  19.3  101  .80

          29 12  11 26.47  +04 04.9   3.705  4.437     2.0 / 267  19.3  115  .70

          30 12  11 26.34  +04 04.8   3.716  4.437     1.8 / 264  19.3  129  .59

     May   1 12  11 26.22  +04 04.6   3.728  4.438     1.6 / 261  19.3  143  .47

NAKANO

         **** Don't distribute anyone except personal use only ****

                (C) Copyright 2005 OAA/ComputingSection

write mail from CFAD0::NAKANO on 2005-04-03 05:38:44(JST).

 



戻ります。